Crookston, MN

3:35 AM CST on January 18, 2017 (GMT -0600)
Crookston Municipal-Kirkwood

Weather History for KCKN - February, 2013

Change the Weather History Date:

Saturday, February 23, 2013

  Actual Average Record
Temperature  
Mean Temperature 16 °F -  
Max Temperature 19 °F 22 °F 77 °F (1999)
Min Temperature 14 °F 7 °F -18 °F (2015)
Degree Days  
Heating Degree Days 48    
Moisture  
Dew Point 15 °F    
Average Humidity 93    
Maximum Humidity 100    
Minimum Humidity 86    
Precipitation  
Precipitation 0.00 in - - ()
Sea Level Pressure  
Sea Level Pressure 29.90 in    
Wind  
Wind Speed 3 mph (South)    
Max Wind Speed 9 mph    
Max Gust Speed -    
Visibility 6 miles    
Events Fog    
Averages and records for this station are not official NWS values.
T = Trace of Precipitation, MM = Missing Value Source: NWS Daily Summary

Daily Weather History Graph

Daily Weather History Graph

Search for Another Location

Airport or City:

Trip Planner

Search our weather history database for the weather conditions in past years. The results will help you decide how hot, cold, wet, or windy it might be!

Date:

Astronomy

Feb. 23, 2013 Rise Set
Actual Time 7:17 AM CST 6:02 PM CST
Civil Twilight 6:46 AM CST 6:33 PM CST
Nautical Twilight 6:10 AM CST 7:09 PM CST
Astronomical Twilight 5:35 AM CST 7:45 PM CST
Moon 4:09 PM CST (2/23) 5:46 AM CST (2/23)
Length of Visible Light 11h 47m
Length of Day
10h 44m
Waxing Gibbous, 95% of the Moon is Illuminated
Feb 23
Waxing Gibbous
Feb 25
Full
Mar 4
Last Quarter
Mar 11
New
Mar 19
First Quarter

Hourly Weather History & Observations

Time (CST) Temp. Windchill Dew Point Humidity Pressure Visibility Wind Dir Wind Speed Gust Speed Precip Events Conditions
12:14 AM 14.0 °F 8.2 °F 12.2 °F 93% 29.91 in 10.0 mi NNW 3.5 mph - N/A   Clear
12:34 AM 14.0 °F 6.5 °F 12.2 °F 93% 29.91 in 10.0 mi North 4.6 mph - N/A   Clear
1:14 AM 14.0 °F 5.1 °F 12.2 °F 93% 29.90 in 10.0 mi North 5.8 mph - N/A   Clear
1:34 AM 14.0 °F 6.5 °F 12.2 °F 93% 29.90 in 10.0 mi North 4.6 mph - N/A   Scattered Clouds
1:55 AM 14.0 °F 8.2 °F 12.2 °F 93% 29.90 in 10.0 mi NNW 3.5 mph - N/A   Scattered Clouds
2:14 AM 14.0 °F - 12.2 °F 93% 29.90 in 10.0 mi Calm Calm - N/A   Mostly Cloudy
2:34 AM 14.0 °F - 12.2 °F 93% 29.89 in 10.0 mi Calm Calm - N/A   Overcast
2:55 AM 14.0 °F - 12.2 °F 93% 29.89 in 10.0 mi Calm Calm - N/A   Overcast
3:14 AM 14.0 °F - 12.2 °F 93% 29.89 in 10.0 mi Calm Calm - N/A   Overcast
3:35 AM 15.8 °F - 12.2 °F 86% 29.88 in 10.0 mi Calm Calm - N/A   Overcast
3:55 AM 15.8 °F - 12.2 °F 86% 29.88 in 10.0 mi Calm Calm - N/A   Overcast
4:14 AM 15.8 °F - 12.2 °F 86% 29.88 in 10.0 mi Calm Calm - N/A   Overcast
4:35 AM 15.8 °F - 12.2 °F 86% 29.88 in 10.0 mi Calm Calm - N/A   Overcast
4:54 AM 15.8 °F - 14.0 °F 93% 29.87 in 1.5 mi Calm Calm - N/A   Overcast
5:14 AM 15.8 °F - 14.0 °F 93% 29.87 in 0.8 mi Calm Calm - N/A   Overcast
5:35 AM 15.8 °F - 14.0 °F 93% 29.87 in 1.0 mi Calm Calm - N/A   Overcast
5:54 AM 15.8 °F - 14.0 °F 93% 29.87 in 1.0 mi Calm Calm - N/A   Overcast
6:14 AM 15.8 °F - 12.2 °F 86% 29.87 in 0.8 mi Calm Calm - N/A   Overcast
6:35 AM 15.8 °F - 12.2 °F 86% 29.87 in 0.5 mi Calm Calm - N/A Fog Light Freezing Fog
6:54 AM 15.8 °F - 14.0 °F 93% 29.87 in 0.2 mi Calm Calm - N/A Fog Light Freezing Fog
7:14 AM 15.8 °F - 14.0 °F 93% 29.87 in 0.5 mi Calm Calm - N/A Fog Light Freezing Fog
7:35 AM 15.8 °F - 14.0 °F 93% 29.87 in 0.2 mi Calm Calm - N/A Fog Light Freezing Fog
7:54 AM 15.8 °F - 14.0 °F 93% 29.87 in 0.2 mi Calm Calm - N/A Fog Light Freezing Fog
8:14 AM 15.8 °F - 15.8 °F 100% 29.88 in 0.2 mi Calm Calm - N/A Fog Light Freezing Fog
8:35 AM 15.8 °F - 15.8 °F 100% 29.88 in 0.2 mi Calm Calm - N/A Fog Light Freezing Fog
8:54 AM 15.8 °F - 15.8 °F 100% 29.88 in 0.2 mi Calm Calm - N/A Fog Light Freezing Fog
9:15 AM 17.6 °F 12.3 °F 15.8 °F 93% 29.88 in 0.2 mi WSW 3.5 mph - N/A Fog Light Freezing Fog
10:35 AM 17.6 °F 12.3 °F 15.8 °F 93% 29.89 in 0.2 mi SW 3.5 mph - N/A Fog Light Freezing Fog
10:54 AM 17.6 °F 12.3 °F 15.8 °F 93% 29.89 in 0.2 mi South 3.5 mph - N/A Fog Light Freezing Fog
11:15 AM 17.6 °F 12.3 °F 17.6 °F 100% 29.89 in 0.5 mi South 3.5 mph - N/A Fog Light Freezing Fog
11:35 AM 19.4 °F 12.8 °F 17.6 °F 93% 29.89 in 0.8 mi South 4.6 mph - N/A   Overcast
11:54 AM 19.4 °F 10.4 °F 17.6 °F 93% 29.89 in 5.0 mi South 6.9 mph - N/A   Overcast
12:15 PM 19.4 °F 12.8 °F 17.6 °F 93% 29.89 in 7.0 mi South 4.6 mph - N/A   Overcast
12:35 PM 19.4 °F 11.5 °F 17.6 °F 93% 29.89 in 7.0 mi South 5.8 mph - N/A   Overcast
12:54 PM 19.4 °F 12.8 °F 17.6 °F 93% 29.89 in 7.0 mi SSW 4.6 mph - N/A   Overcast
1:15 PM 19.4 °F 12.8 °F 17.6 °F 93% 29.88 in 7.0 mi SSE 4.6 mph - N/A   Overcast
1:35 PM 19.4 °F 8.6 °F 17.6 °F 93% 29.88 in 7.0 mi SSE 9.2 mph - N/A   Overcast
1:54 PM 19.4 °F 10.4 °F 17.6 °F 93% 29.88 in 7.0 mi South 6.9 mph - N/A   Overcast
2:15 PM 19.4 °F 12.8 °F 17.6 °F 93% 29.87 in 10.0 mi South 4.6 mph - N/A   Overcast
2:35 PM 19.4 °F 9.5 °F 17.6 °F 93% 29.88 in 10.0 mi South 8.1 mph - N/A   Overcast
2:54 PM 19.4 °F 11.5 °F 17.6 °F 93% 29.87 in 10.0 mi South 5.8 mph - N/A   Overcast
3:15 PM 19.4 °F 11.5 °F 17.6 °F 93% 29.88 in 10.0 mi South 5.8 mph - N/A   Overcast
3:34 PM 19.4 °F 10.4 °F 17.6 °F 93% 29.87 in 10.0 mi South 6.9 mph - N/A   Overcast
3:54 PM 19.4 °F 11.5 °F 17.6 °F 93% 29.88 in 10.0 mi South 5.8 mph - N/A   Overcast
4:14 PM 19.4 °F 9.5 °F 17.6 °F 93% 29.88 in 10.0 mi South 8.1 mph - N/A   Overcast
4:34 PM 19.4 °F 11.5 °F 17.6 °F 93% 29.89 in 10.0 mi South 5.8 mph - N/A   Overcast
4:55 PM 19.4 °F 10.4 °F 17.6 °F 93% 29.90 in 10.0 mi SW 6.9 mph - N/A   Overcast
5:14 PM 19.4 °F 11.5 °F 17.6 °F 93% 29.89 in 10.0 mi SSW 5.8 mph - N/A   Overcast
5:35 PM 17.6 °F 10.7 °F 17.6 °F 100% 29.90 in 7.0 mi SSW 4.6 mph - N/A   Overcast
5:55 PM 17.6 °F 10.7 °F 17.6 °F 100% 29.90 in 10.0 mi SSE 4.6 mph - N/A   Overcast
6:14 PM 17.6 °F 10.7 °F 15.8 °F 93% 29.90 in 7.0 mi South 4.6 mph - N/A   Overcast
6:35 PM 17.6 °F 7.3 °F 17.6 °F 100% 29.90 in 10.0 mi SSE 8.1 mph - N/A   Overcast
6:55 PM 17.6 °F 9.3 °F 17.6 °F 100% 29.90 in 7.0 mi SSE 5.8 mph - N/A   Overcast
7:14 PM 17.6 °F 12.3 °F 17.6 °F 100% 29.91 in 7.0 mi SSE 3.5 mph - N/A   Overcast
7:35 PM 17.6 °F 9.3 °F 15.8 °F 93% 29.91 in 7.0 mi South 5.8 mph - N/A   Overcast
7:55 PM 17.6 °F 9.3 °F 15.8 °F 93% 29.91 in 7.0 mi SSE 5.8 mph - N/A   Overcast
8:14 PM 17.6 °F 10.7 °F 15.8 °F 93% 29.91 in 7.0 mi South 4.6 mph - N/A   Overcast
8:35 PM 17.6 °F 12.3 °F 15.8 °F 93% 29.92 in 7.0 mi South 3.5 mph - N/A   Overcast
8:55 PM 17.6 °F 12.3 °F 15.8 °F 93% 29.93 in 10.0 mi SSW 3.5 mph - N/A   Overcast
9:14 PM 17.6 °F 9.3 °F 15.8 °F 93% 29.94 in 7.0 mi SW 5.8 mph - N/A   Overcast
9:35 PM 15.8 °F 10.2 °F 15.8 °F 100% 29.94 in 5.0 mi South 3.5 mph - N/A   Overcast
9:55 PM 15.8 °F 8.6 °F 14.0 °F 93% 29.94 in 5.0 mi South 4.6 mph - N/A   Overcast
10:14 PM 15.8 °F 8.6 °F 14.0 °F 93% 29.94 in 5.0 mi SSE 4.6 mph - N/A   Overcast
10:35 PM 15.8 °F 8.6 °F 14.0 °F 93% 29.94 in 7.0 mi SSE 4.6 mph - N/A   Overcast
10:55 PM 15.8 °F 10.2 °F 14.0 °F 93% 29.95 in 5.0 mi South 3.5 mph - N/A   Overcast
11:14 PM 15.8 °F 8.6 °F 14.0 °F 93% 29.95 in 3.0 mi South 4.6 mph - N/A   Overcast
11:35 PM 15.8 °F 7.2 °F 14.0 °F 93% 29.95 in 2.0 mi SSE 5.8 mph - N/A   Overcast
11:54 PM 15.8 °F 7.2 °F 14.0 °F 93% 29.95 in 1.5 mi SSE 5.8 mph - N/A   Overcast